STARLINK-34332, 64213

Orbit data source: Space-Track

STARLINK-34332, 64213 is a payload satellite owned by SpaceX/Seattle (US) in LEO that was launched on Sat, 31 May 2025 UTC via an FALCON 9 launch vehicle from the Air Force Western Test Range (AFWTR). Payload-class satellites include a variety of spacecraft equipped with specific instruments for various scientific and technological missions. These include communications satellites like Starlink; space stations such as the ISS; scientific satellites like the Hubble; Earth observation satellites from companies like Planet Labs, Umbra, and HawkEye 360; GPS; miniature CubeSats for education and research; and military/defense satellites.

Loading next visibility...
Identifier
64213, 2025-117L
Orbit
LEO
Country
Flag of USUS
Related business
Manufacturer
SpaceX/Seattle
Mission
Operational Commercial Communications
Bus & Motor
STARLINK V2MO, Unknown motor
Mass
575 kg wet, ~530 kg dry
Launch date (UTC)
2025-05-31 (1 year ago)
Launch vehicle
FALCON 9
Launch site
Air Force Western Test Range (AFWTR)
Object type
Payload
Rocket body
Debris
Shape & HBR
Box + 1 Pan, 17.7 m
Radar Cross Section
41.120 m², Large (>1 m²)

Expand to show TLE details & history
Last TLE update: 1 day ago

TLE from 1 day ago
0 STARLINK-34332
1 64213U 25117L   26235.32845669  .00019615  00000-0  59048-3 0  9994
2 64213  53.1606 343.1181 0001065 356.6384   3.4611 15.34382903 70108
Epoch: 2026-08-23T07:52Z
TLE epoch observation values (Epoch: 2026-08-23T07:52:58.658Z)
Latitude
-0.00002°
Longitude
-106.75241°
Altitude
462.928 km
Speed
7.637 km/s
True Right ascension
22h 52m 28s
True Declination
0° 00' 00"
Sunlit
Object was in full shadow at epoch
Visualization orbit readout
Latitude
Unknown
Longitude
Unknown
Altitude
Unknown
Speed
Unknown
Apparent Right ascension
Unknown
Apparent Declination
Unknown
Sunlit
N/A
Visualization observer readout
Local Sidereal Time
23:03:59
Azimuth
Unknown
Elevation
Unknown
Doppler factor
Unknown
Orbital elements
Apogee altitude
463.739 km
Perigee altitude
462.282 km
Semi-major axis
6,841.148 km
Eccentricity
0.00011
Inclination
53.1606°
RAAN
343.1181°
Arg. of periapsis
356.6384°
True anomaly
3.46184°
Mean anomaly
3.4611°
Eccentric anomaly
3.46147°
Mean motion
3.83574 °/min
Orbital period
93.85 mins
BSTAR
0.00059048
Loading maneuver chart data...
Computing Atmospheric mass density...
Loading historical data...
Loading historical data...
Loading historical data...
Loading historical data...
Loading historical data...
Loading historical data...
Loading historical data...

Documentation

Showing up to 5 results
|